{"data":{"norad_id":56350,"intl_designator":"2023-058AK","name":"STARLINK-5886","alt_names":[],"object_type":"PAYLOAD","status":"ACTIVE","operator":null,"country":"US","launch_date":"2023-04-27","launch_site_code":"AFWTR","launch_vehicle":null,"mission":null,"orbit_class":"UNKNOWN","rcs_meters":null,"size_class":null,"mass_kg":null,"dimensions":null,"purposes":["comms"],"wikipedia_slug":null,"has_3d_model":false,"image_url":null,"decayed_at":null,"tle_current":{"epoch":"2026-09-20T22:34:12.683712Z","epoch_age_seconds":71106,"freshness":"FRESH","line1":"1 56350U 23058AK  26263.94042458 -.00000390  00000+0 -97580-5 0  9999","line2":"2 56350  97.2844 260.7065 0001511  89.8257 270.3159 15.33434201187704","mean_motion":15.33434201,"eccentricity":0.0001511,"inclination_deg":97.2844,"raan_deg":260.7065,"arg_perigee_deg":89.8257,"mean_anomaly_deg":270.3159,"bstar":-9.758e-6,"rev_number":18770,"period_min":93.906865978399,"perigee_km":464.54121996368,"apogee_km":466.60938982222,"semimajor_km":6843.7123048929,"source":"CELESTRAK","updated_at":"2026-09-21T09:00:33.427432Z"}}}